When you browse on this site, cookies collect data to enhance your experience and personalize the content and advertising you see.
Visit our Privacy Policy to learn more. By continuing to use the site, you agree to this use of cookies and data.
  • In United Kingdom
  • List of Countries
  • For 7 days
  • Water Temperature
  • Satellite Maps
  • Weather Map
  • Weather Widgets
  • user-avatar
    Login

    Hourly Weather Sydney

    Today, 21 February, Thursday

    Time Temperature Precipitation Wind Pressure Humidity
    00:00 +22°C° 1 mm 4 mps 759 mmHg 86%
    01:00 +22°C° 1 mm 4 mps 759 mmHg 86%
    02:00 +22°C° 0.6 mm 5 mps 759 mmHg 85%
    03:00 +22°C° 0.6 mm 5 mps 759 mmHg 85%
    04:00 +22°C° 0 mm 4 mps 759 mmHg 85%
    05:00 +22°C° 0.3 mm 4 mps 759 mmHg 84%
    06:00 +22°C° 0.3 mm 5 mps 760 mmHg 84%
    07:00 +22°C° 0.3 mm 5 mps 760 mmHg 83%
    08:00 +22°C° 0.1 mm 5 mps 760 mmHg 82%
    09:00 +22°C° 0.1 mm 5 mps 761 mmHg 81%
    10:00 +23°C° 0.1 mm 5 mps 761 mmHg 79%
    11:00 +23°C° 0.1 mm 5 mps 761 mmHg 78%
    12:00 +23°C° 0.1 mm 5 mps 761 mmHg 76%
    13:00 +23°C° 0.1 mm 5 mps 761 mmHg 75%
    14:00 +23°C° 0.1 mm 5 mps 761 mmHg 75%
    15:00 +23°C° 0.1 mm 5 mps 761 mmHg 75%
    16:00 +23°C° 0.1 mm 6 mps 761 mmHg 75%
    17:00 +23°C° 0.1 mm 6 mps 762 mmHg 76%
    18:00 +22°C° 0.1 mm 6 mps 762 mmHg 77%
    19:00 +22°C° 0.1 mm 6 mps 763 mmHg 79%
    20:00 +22°C° 0.1 mm 6 mps 763 mmHg 79%
    21:00 +22°C° 0.1 mm 6 mps 764 mmHg 78%
    22:00 +22°C° 0.1 mm 6 mps 764 mmHg 78%
    23:00 +21°C° 0.1 mm 6 mps 764 mmHg 78%

    Tomorrow, 22 February, Friday

    Time Temperature Precipitation Wind Pressure Humidity
    00:00 +21°C° 0.1 mm 6 mps 764 mmHg 77%
    01:00 +21°C° 0.1 mm 6 mps 764 mmHg 76%
    02:00 +21°C° 0 mm 6 mps 764 mmHg 76%
    03:00 +21°C° 0 mm 6 mps 764 mmHg 75%
    04:00 +21°C° 0 mm 6 mps 764 mmHg 74%
    05:00 +21°C° 0 mm 6 mps 764 mmHg 72%
    06:00 +21°C° 0 mm 6 mps 764 mmHg 71%
    07:00 +21°C° 0 mm 6 mps 764 mmHg 69%
    08:00 +21°C° 0.1 mm 6 mps 764 mmHg 69%
    09:00 +21°C° 0.1 mm 6 mps 765 mmHg 69%
    10:00 +22°C° 0.1 mm 6 mps 765 mmHg 69%
    11:00 +22°C° 0.1 mm 6 mps 765 mmHg 65%
    12:00 +23°C° 0.1 mm 7 mps 764 mmHg 61%
    13:00 +24°C° 0.1 mm 7 mps 764 mmHg 56%
    14:00 +24°C° 0 mm 7 mps 764 mmHg 55%
    15:00 +24°C° 0 mm 7 mps 764 mmHg 54%
    16:00 +26°C° 0 mm 7 mps 764 mmHg 53%
    17:00 +24°C° 0 mm 7 mps 764 mmHg 57%
    18:00 +23°C° 0 mm 6 mps 765 mmHg 61%
    19:00 +22°C° 0 mm 6 mps 765 mmHg 65%
    20:00 +22°C° 0 mm 6 mps 765 mmHg 67%
    21:00 +22°C° 0 mm 6 mps 766 mmHg 69%
    22:00 +21°C° 0 mm 5 mps 766 mmHg 70%
    23:00 +21°C° 0 mm 5 mps 766 mmHg 72%

    Day after tomorrow, 23 February, Saturday

    Time Temperature Precipitation Wind Pressure Humidity
    00:00 +21°C° 0 mm 5 mps 765 mmHg 73%
    01:00 +20°C° 0 mm 6 mps 765 mmHg 75%
    02:00 +20°C° 0 mm 6 mps 765 mmHg 75%
    03:00 +20°C° 0 mm 6 mps 764 mmHg 74%
    04:00 +20°C° 0 mm 6 mps 764 mmHg 74%
    05:00 +21°C° 0.1 mm 6 mps 765 mmHg 73%
    06:00 +21°C° 0.1 mm 7 mps 765 mmHg 72%
    07:00 +21°C° 0.1 mm 7 mps 765 mmHg 71%
    08:00 +21°C° 0.1 mm 7 mps 766 mmHg 68%
    09:00 +22°C° 0.1 mm 7 mps 766 mmHg 65%
    10:00 +22°C° 0.1 mm 7 mps 766 mmHg 63%
    11:00 +23°C° 0.1 mm 7 mps 766 mmHg 60%
    12:00 +24°C° 0.1 mm 8 mps 766 mmHg 57%
    13:00 +26°C° 0.1 mm 8 mps 766 mmHg 55%
    14:00 +24°C° 0.1 mm 8 mps 766 mmHg 56%
    15:00 +24°C° 0.1 mm 8 mps 766 mmHg 58%
    16:00 +24°C° 0.1 mm 8 mps 765 mmHg 59%
    17:00 +23°C° 0.1 mm 8 mps 766 mmHg 62%
    18:00 +23°C° 0.1 mm 7 mps 766 mmHg 64%
    19:00 +22°C° 0.1 mm 7 mps 766 mmHg 67%
    20:00 +22°C° 0.1 mm 7 mps 767 mmHg 68%
    21:00 +22°C° 0.1 mm 8 mps 767 mmHg 69%
    22:00 +22°C° 0.1 mm 8 mps 767 mmHg 70%
    23:00 +21°C° 0.1 mm 8 mps 767 mmHg 70%

    24 February, Sunday

    Time Temperature Precipitation Wind Pressure Humidity
    00:00 +21°C° 0.1 mm 8 mps 767 mmHg 69%
    01:00 +20°C° 0.1 mm 8 mps 767 mmHg 69%
    02:00 +20°C° 0.1 mm 8 mps 767 mmHg 69%
    03:00 +20°C° 0.1 mm 8 mps 767 mmHg 69%
    04:00 +20°C° 0.1 mm 8 mps 767 mmHg 69%
    05:00 +20°C° 0.1 mm 8 mps 767 mmHg 69%
    06:00 +20°C° 0.1 mm 7 mps 768 mmHg 69%
    07:00 +20°C° 0.1 mm 7 mps 768 mmHg 69%
    08:00 +20°C° 0.2 mm 7 mps 768 mmHg 68%
    09:00 +21°C° 0.2 mm 7 mps 769 mmHg 68%
    10:00 +21°C° 0.2 mm 7 mps 769 mmHg 67%
    11:00 +22°C° 0.1 mm 7 mps 769 mmHg 65%
    12:00 +23°C° 0.1 mm 8 mps 768 mmHg 62%
    13:00 +23°C° 0.1 mm 8 mps 768 mmHg 60%
    14:00 +23°C° 0.1 mm 8 mps 768 mmHg 61%
    15:00 +23°C° 0.1 mm 8 mps 768 mmHg 62%
    16:00 +22°C° 0.1 mm 8 mps 768 mmHg 64%
    17:00 +22°C° 0.1 mm 7 mps 768 mmHg 65%
    18:00 +21°C° 0.1 mm 7 mps 768 mmHg 67%
    19:00 +21°C° 0.1 mm 7 mps 769 mmHg 68%
    20:00 +21°C° 0.1 mm 7 mps 769 mmHg 68%
    21:00 +21°C° 0.1 mm 6 mps 769 mmHg 68%
    22:00 +21°C° 0.1 mm 6 mps 769 mmHg 68%
    23:00 +21°C° 0.1 mm 6 mps 769 mmHg 69%

    25 February, Monday

    Time Temperature Precipitation Wind Pressure Humidity
    00:00 +21°C° 0.1 mm 6 mps 769 mmHg 70%
    01:00 +21°C° 0.1 mm 6 mps 768 mmHg 70%
    02:00 +21°C° 0.1 mm 6 mps 768 mmHg 71%
    03:00 +21°C° 0.1 mm 6 mps 768 mmHg 71%
    04:00 +21°C° 0.1 mm 6 mps 767 mmHg 72%
    05:00 +21°C° 0.2 mm 5 mps 768 mmHg 72%
    06:00 +21°C° 0.2 mm 5 mps 768 mmHg 72%
    07:00 +21°C° 0.2 mm 5 mps 769 mmHg 72%
    08:00 +21°C° 0.1 mm 5 mps 769 mmHg 71%
    09:00 +22°C° 0.1 mm 5 mps 769 mmHg 69%
    10:00 +22°C° 0.1 mm 5 mps 769 mmHg 68%
    11:00 +22°C° 0.1 mm 5 mps 769 mmHg 66%
    12:00 +23°C° 0.1 mm 4 mps 768 mmHg 65%
    13:00 +23°C° 0.1 mm 4 mps 768 mmHg 63%
    14:00 +25°C° 0 mm 4 mps 767 mmHg 61%
    15:00 +25°C° 0 mm 5 mps 767 mmHg 58%
    16:00 +26°C° 0 mm 5 mps 767 mmHg 56%
    17:00 +25°C° 0.1 mm 4 mps 767 mmHg 60%
    18:00 +23°C° 0.1 mm 4 mps 767 mmHg 65%
    19:00 +22°C° 0.1 mm 4 mps 767 mmHg 70%
    20:00 +22°C° 0.1 mm 3 mps 768 mmHg 72%
    21:00 +22°C° 0.1 mm 3 mps 768 mmHg 75%
    22:00 +21°C° 0.1 mm 3 mps 768 mmHg 78%
    23:00 +21°C° 0.1 mm 3 mps 767 mmHg 80%

    26 February, Tuesday

    Time Temperature Precipitation Wind Pressure Humidity
    00:00 +21°C° 0.1 mm 2 mps 767 mmHg 82%
    01:00 +20°C° 0.1 mm 2 mps 766 mmHg 84%
    02:00 +20°C° 0.2 mm 2 mps 766 mmHg 85%
    03:00 +20°C° 0.2 mm 2 mps 766 mmHg 86%
    04:00 +20°C° 0.2 mm 1 mps 765 mmHg 87%
    05:00 +20°C° 0.2 mm 2 mps 766 mmHg 86%
    06:00 +20°C° 0.2 mm 2 mps 766 mmHg 85%
    07:00 +20°C° 0.2 mm 2 mps 766 mmHg 84%
    08:00 +23°C° 0.2 mm 1 mps 766 mmHg 76%
    09:00 +25°C° 0.2 mm 1 mps 765 mmHg 67%
    10:00 +25°C° 0.2 mm 0 mps 765 mmHg 59%
    11:00 +28°C° 0 mm 1 mps 765 mmHg 55%
    12:00 +29°C° 0 mm 2 mps 764 mmHg 50%
    13:00 +29°C° 0 mm 3 mps 763 mmHg 45%
    14:00 +29°C° 0 mm 3 mps 763 mmHg 48%
    15:00 +29°C° 0 mm 4 mps 763 mmHg 50%
    16:00 +28°C° 0 mm 5 mps 762 mmHg 52%
    17:00 +27°C° 0 mm 5 mps 762 mmHg 58%
    18:00 +26°C° 0 mm 4 mps 763 mmHg 63%
    19:00 +25°C° 0 mm 4 mps 763 mmHg 68%
    20:00 +23°C° 0 mm 4 mps 763 mmHg 70%
    21:00 +24°C° 0 mm 3 mps 763 mmHg 72%
    22:00 +22°C° 0 mm 3 mps 763 mmHg 73%
    23:00 +23°C° 0 mm 2 mps 763 mmHg 76%
    Show more